Location: Molveno
(46.1500°N, 10.9667°E)
Time: 16:53:03
(UTC+00:00)

USA 215 - Pass Details

Date: 05 July 2020
Orbit: 1102 x 1106 km, 123.0° (Epoch: 08 August)

Event Time Altitude Azimuth Distance (km) Brightness Sun altitude
Rises 22:40:48 0° 55° (NE) 3,926 6.5 -20.6°
Reaches altitude 10° 22:43:22 10° 50° (NE) 2,966 5.9 -20.7°
Maximum altitude 22:49:35 48° 338° (NNW) 1,412 4.2 -20.8°
Drops below altitude 10° 22:55:47 10° 267° (W) 2,959 5.5 -20.9°
Sets 22:58:20 0° 262° (W) 3,916 6.1 -21.0°
